Location: Academy at Carrie F Thomas
(32.8490°N, 97.2053°W)
Time: 16:35:59
(UTC+00:00)

Meteor 1-25 Rocket - Pass Details

Date: 06 July 2022
Orbit: 835 x 893 km, 81.2° (Epoch: 18 August)

Event Time Altitude Azimuth Distance (km) Brightness Sun altitude
Exits shadow 10:06:18 17° 259° (WSW) 2,088 5.7 -14.8°
Maximum altitude 10:08:28 21° 287° (WNW) 1,900 5.7 -14.5°
Drops below altitude 10° 10:12:46 10° 335° (NNW) 2,560 6.9 -13.8°
Sets 10:15:53 0° 351° (N) 3,498 7.8 -13.3°
